EHI
6 5 5 6 5 2 1 0 0 0 0 0 0 0 0 0 0 0 0 0 0 0 0 0 0 0 0 0 0 0 0 0 0 0 0 0 0 0 0 0 0 0 0
7 5 4 5 3 1 0 0 0 0 0 0 0 0 0 0 0 0 0 0 0 0 0 0 0 0 0 0 0 0 0 0 0 0 0 0 0 0 0 0 0 0 0
7 5 4 3 1 0 0 0 0 0 0 0 0 0 0 0 0 0 0 0 0 0 0 0 0 0 0 0 0 0 0 0 0 0 0 0 0 0 0 0 0 0 0
6 6 4 3 1 0 0 0 0 0 0 0 0 0 0 0 0 0 0 0 0 0 0 0 0 0 0 0 0 0 0 0 0 0 0 0 0 0 0 0 0 0 0
7 6 5 3 1 0 0 0 0 0 0 0 0 0 0 0 0 0 0 0 0 0 0 0 0 0 0 0 0 0 0 0 0 0 0 0 0 0 0 0 0 0 0
8 7 6 4 2 0 0 0 0 0 0 0 0 0 0 0 0 0 0 0 0 0 0 0 0 0 0 0 0 0 0 0 0 0 0 0 0 0 0 0 0 0 0
8 7 6 4 2 0 0 0 0 0 0 0 0 0 0 0 0 0 0 0 0 0 0 0 0 0 0 0 0 0 0 0 0 0 0 0 0 0 0 0 0 0 0
7 7 6 4 3 2 0 0 0 0 0 0 0 0 0 0 0 0 0 0 0 0 0 0 0 0 0 0 0 0 0 0 0 0 0 0 0 0 0 0 0 0 0
5 5 5 4 5 4 2 0 0 0 0 0 0 0 0 0 0 0 0 0 0 0 0 0 0 0 0 0 0 0 0 0 0 0 0 0 0 0 0 0 0 0 0
2 2 3 4 5 5 3 1 0 0 0 0 0 0 0 0 0 0 0 0 0 0 0 0 0 0 0 0 0 0 0 0 0 0 0 0 0 0 0 0 0 0 0
0 0 1 2 4 4 3 1 0 0 0 0 0 0 0 0 0 0 0 0 0 0 0 0 0 0 0 0 0 0 0 0 0 0 0 0 0 0 0 0 0 0 0
0 0 0 1 2 2 1 1 0 0 0 0 0 0 0 0 0 0 0 0 0 0 0 0 0 0 0 0 0 0 0 0 0 0 0 0 0 0 0 0 0 0 0
0 0 0 1 1 1 0 0 0 0 0 0 0 0 0 0 0 0 0 0 0 0 0 0 0 0 0 0 0 0 0 0 0 0 0 0 0 0 0 0 0 0 0
0 0 0 0 0 0 0 0 0 0 0 0 0 0 0 0 0 0 0 0 0 0 0 0 0 0 0 0 0 0 0 0 0 0 0 0 0 0 0 0 0 0 0
0 0 0 0 0 0 0 0 0 0 0 0 0 0 0 0 0 0 0 0 0 0 0 0 0 0 0 0 0 0 0 0 0 0 0 0 0 0 0 0 0 0 0
0 0 0 0 0 0 0 0 0 0 0 0 0 0 0 0 0 0 0 0 0 0 0 0 0 0 0 0 0 0 0 0 0 0 0 0 0 0 0 0 0 0 0
0 0 0 0 0 0 0 0 0 0 0 0 0 0 0 0 0 0 0 0 0 0 0 0 0 0 0 0 0 0 0 0 0 0 0 0 0 0 0 0 0 0 0
0 0 0 0 0 0 0 0 0 0 0 0 0 0 0 0 0 0 0 0 0 0 0 0 0 0 0 0 0 0 0 0 0 0 0 0 0 0 0 0 0 0 0
0 0 0 0 0 0 0 0 0 0 0 0 0 0 0 0 0 0 0 0 0 0 0 0 0 0 0 0 0 0 0 0 0 0 0 0 0 0 0 0 0 0 0
0 0 0 0 0 0 0 0 0 0 0 0 0 0 0 0 0 0 0 0 0 0 0 0 0 0 0 0 0 0 0 0 0 0 0 0 0 0 0 0 0 0 0
0 0 0 0 0 0 0 0 0 0 0 0 0 0 0 0 0 0 0 0 0 0 0 0 0 0 0 0 0 0 0 0 0 0 0 0 0 0 0 0 0 0 0
0 0 0 0 0 0 0 0 0 0 0 0 0 0 0 0 0 0 0 0 0 0 0 0 0 0 0 0 0 0 0 0 0 0 0 0 0 0 0 0 0 0 0
0 0 0 0 0 0 0 0 0 0 0 0 0 0 0 0 0 0 0 0 0 0 0 0 0 0 0 0 0 0 0 0 0 0 0 0 0 0 0 0 0 0 0
0 0 0 0 0 0 0 0 0 0 0 0 0 0 0 0 0 0 0 0 0 0 0 0 0 0 0 0 0 0 0 0 0 0 0 0 0 0 0 0 0 0 0
0 0 0 0 0 0 0 0 0 0 0 0 0 0 0 0 0 0 0 0 0 0 0 0 0 0 0 0 0 0 0 0 0 0 0 0 0 0 0 0 0 0 0
0 0 0 0 0 0 0 0 0 0 0 0 0 0 0 0 0 0 0 0 0 0 0 0 0 0 0 0 0 0 0 0 0 0 0 0 0 0 0 0 0 0 0
Wind_Speed
5 5 6 7 7 5 5 6 6 6 5 4 3 3 2 1 1 0 1 1 2 3 3 3 3 3 3 3 3 2 4 4 2 2 3 3 3 4 4 4 3 4 2
6 6 7 7 7 7 6 6 6 6 6 4 3 3 3 2 1 1 1 1 1 2 2 3 3 3 3 4 3 2 2 3 3 2 2 2 3 4 4 4 5 5 4
10 9 8 8 8 9 9 8 7 6 5 5 4 4 3 3 1 1 1 1 2 2 2 3 3 2 2 2 2 2 3 2 2 3 2 2 1 2 3 3 4 5 5
8 8 8 9 10 10 8 7 7 6 5 5 5 5 4 3 4 3 2 2 1 2 2 3 3 2 2 2 2 2 2 2 1 2 2 2 1 1 1 3 3 4 5
8 9 10 10 9 9 8 6 6 5 5 5 6 5 4 3 2 2 2 2 1 2 3 3 3 3 2 2 2 2 2 2 2 1 1 2 2 2 1 1 4 3 3
8 8 7 7 6 7 6 6 6 6 6 6 6 6 6 5 4 3 3 2 1 1 3 4 3 3 3 3 2 2 2 2 2 1 1 1 1 1 1 0 1 2 3
9 9 8 8 8 8 7 7 7 7 6 7 6 7 7 7 7 5 5 3 2 2 4 4 4 3 3 3 3 2 2 2 2 2 1 1 1 1 2 1 1 2 2
9 10 10 10 9 9 8 8 9 8 7 8 7 6 6 5 4 5 4 4 4 4 4 5 5 5 4 4 3 2 3 2 3 3 3 2 2 2 2 2 2 1 2
10 11 10 10 10 10 10 10 10 9 9 9 8 7 7 6 6 5 5 4 4 3 5 5 5 5 5 4 4 3 4 3 3 3 3 3 2 3 3 3 3 2 2
9 10 10 11 10 10 9 8 9 10 9 9 8 7 7 7 6 5 6 6 5 4 5 5 5 5 5 5 5 4 4 4 4 3 4 4 3 3 3 4 4 4 4
11 11 10 10 9 8 8 8 9 9 8 9 9 8 8 7 7 6 7 6 5 6 6 6 6 6 6 5 5 6 5 6 5 5 5 6 5 4 4 4 4 5 4
9 9 9 8 8 9 9 9 9 9 10 9 9 9 8 7 8 8 8 7 7 6 6 6 6 6 7 6 7 7 7 7 7 7 6 7 5 6 5 4 5 5 6
8 7 8 8 9 10 9 10 10 10 9 8 9 8 8 9 9 10 9 8 8 7 7 7 7 8 7 7 8 8 7 8 8 7 7 8 6 7 6 6 6 5 5
7 8 8 8 9 9 9 10 10 9 9 9 9 10 10 11 11 9 9 9 8 8 8 8 9 8 8 8 8 8 8 8 8 8 8 8 8 9 8 7 7 6 6
4 7 8 7 7 7 7 8 8 8 8 9 10 12 10 9 8 9 9 8 9 10 9 8 8 8 7 8 9 9 9 9 9 8 9 9 11 12 10 7 7 7 6
1 2 3 4 5 7 7 7 7 7 7 9 10 8 6 7 8 9 8 8 9 9 8 9 9 9 9 11 14 11 9 9 9 9 9 9 11 13 14 15 13 11 9
3 2 1 2 2 3 4 5 5 4 5 6 6 5 6 8 8 8 7 9 9 8 9 10 10 11 12 14 15 15 10 10 10 10 9 8 8 10 9 11 13 13 15
7 6 4 4 3 2 1 2 3 3 3 3 4 4 4 6 5 6 8 9 7 7 9 10 10 11 12 15 16 16 12 10 11 11 11 11 10 10 10 9 10 10 11
6 6 7 6 7 6 5 6 5 4 3 1 2 2 2 4 4 6 8 7 6 8 8 7 10 11 13 15 17 15 9 10 12 12 12 12 12 13 13 11 11 11 11
8 9 9 10 11 9 7 9 8 7 6 4 3 2 2 3 4 5 6 4 5 7 7 8 9 11 12 13 16 16 8 10 10 10 11 15 16 15 15 12 11 13 12
9 10 11 11 10 7 9 11 10 8 6 5 5 5 4 3 3 3 3 3 4 5 6 8 8 9 11 12 15 15 10 11 11 9 9 10 16 19 18 15 13 15 12
9 9 10 9 7 7 9 10 8 5 5 6 7 6 6 5 5 4 4 4 4 5 6 7 8 7 8 11 12 15 17 15 11 11 10 10 15 17 17 14 15 16 12
7 6 7 8 7 7 7 8 5 4 5 7 7 6 6 5 5 4 5 4 4 4 5 5 6 7 6 7 13 15 17 18 14 11 14 14 14 14 13 16 16 13 9
5 4 6 7 5 5 6 4 3 4 5 5 5 5 5 6 6 4 4 4 4 4 5 5 6 7 6 6 6 6 8 12 13 12 13 15 14 12 11 10 10 10 9
3 3 4 4 3 3 4 4 3 3 4 4 4 4 4 4 5 5 4 4 4 5 6 6 6 7 8 9 11 9 8 8 8 7 6 7 7 8 8 8 8 8 8
2 2 2 2 1 2 3 3 3 2 3 3 4 3 4 4 4 5 6 7 7 11 11 10 10 9 12 16 17 16 16 16 13 7 8 9 9 10 10 9 9 8 9
Wind_Direction
151 141 143 145 142 140 148 155 150 149 141 133 130 127 134 134 129 153 142 122 111 102 91 85 67 62 72 69 76 84 59 33 5 44 19 2 17 39 34 24 31 25 3
163 161 158 158 162 164 173 174 174 167 165 147 138 136 132 140 152 127 131 174 150 138 116 106 94 83 84 69 60 75 80 33 22 69 77 25 3 3 16 20 33 28 29
180 176 173 172 171 179 186 186 187 176 167 141 116 96 81 71 79 145 217 224 189 166 130 127 117 104 98 92 75 78 98 87 32 37 110 124 173 322 339 6 20 19 29
179 177 178 180 182 188 185 185 183 176 167 154 152 150 157 172 199 193 200 216 200 184 164 152 144 132 120 115 99 87 90 105 69 33 40 72 135 113 348 338 356 7 23
183 185 184 184 185 182 182 182 179 181 174 169 168 160 163 175 167 163 190 212 232 216 192 175 166 158 151 145 123 110 103 102 114 90 73 72 61 66 105 334 337 346 351
187 190 183 178 184 183 181 177 181 191 181 175 174 176 175 170 166 181 194 210 222 234 213 189 182 178 174 174 167 152 139 136 128 127 121 128 123 119 119 158 312 319 316
185 188 189 190 194 191 189 185 187 198 190 182 186 189 185 179 185 189 195 195 201 215 215 195 189 191 195 192 179 176 181 175 170 176 181 180 186 167 154 161 229 294 307
190 195 197 198 201 200 196 191 195 203 192 191 197 194 188 184 194 194 190 196 204 213 207 197 199 203 198 196 189 195 205 196 199 202 194 197 204 189 183 177 170 258 303
196 200 200 201 203 203 202 198 199 203 198 198 195 194 193 192 199 198 195 201 209 216 208 202 203 207 206 204 194 209 217 206 214 219 215 216 216 204 206 197 186 185 243
202 205 205 206 207 208 205 197 199 204 201 196 197 201 199 200 198 191 199 206 211 212 203 207 210 212 213 210 204 217 221 216 224 218 220 228 227 216 209 208 207 204 210
204 205 207 207 205 203 198 198 201 201 198 198 199 198 199 198 194 199 207 206 207 207 209 211 211 215 219 214 211 223 221 224 234 228 224 235 228 225 219 209 208 209 206
208 205 203 199 199 202 201 202 202 202 204 199 195 201 199 193 198 209 212 206 209 211 213 211 213 220 223 217 215 227 226 225 235 236 230 239 233 229 227 218 220 220 214
209 204 199 199 203 204 203 204 204 206 202 191 194 200 201 200 208 213 212 207 210 215 215 212 218 224 225 222 222 224 229 229 233 235 233 239 232 235 231 225 228 231 228
209 205 207 209 208 204 202 202 206 202 193 189 195 204 208 209 212 213 210 210 210 214 216 217 221 224 226 226 227 226 230 234 236 235 234 236 230 233 233 230 231 232 235
213 209 211 213 210 208 207 206 207 197 189 190 202 214 214 211 211 212 213 212 212 218 217 220 225 226 226 228 225 226 230 233 239 240 237 236 235 234 231 230 229 226 232
253 235 222 213 209 209 209 206 207 197 185 199 215 220 213 214 218 220 217 215 218 218 216 221 225 228 230 228 223 219 228 230 235 241 241 240 245 246 243 239 233 222 226
26 27 305 253 242 229 209 207 209 178 181 207 221 216 212 220 226 226 222 224 224 219 222 226 225 231 234 229 228 224 222 229 233 236 239 243 241 235 241 246 247 242 236
31 31 29 26 10 16 72 112 105 130 169 211 236 236 227 233 232 224 229 231 225 223 229 232 229 232 238 229 228 227 226 232 235 234 233 237 243 237 231 241 247 249 246
41 43 41 44 44 42 53 78 74 76 74 12 311 286 241 238 237 236 239 235 227 231 230 233 233 235 243 231 226 221 224 233 239 237 233 232 240 238 226 233 246 254 255
49 49 48 50 50 41 58 69 62 55 37 16 1 347 297 254 250 251 253 244 235 245 248 247 242 241 247 240 228 218 221 232 241 240 236 231 232 235 222 225 234 246 252
54 58 58 53 42 40 63 65 56 45 27 27 30 22 7 332 307 303 287 272 261 261 258 258 256 249 250 252 240 222 218 229 236 239 239 235 227 229 226 220 228 236 240
57 62 66 57 39 39 63 64 50 27 26 34 33 21 10 5 5 349 331 314 297 285 280 276 276 265 256 251 249 234 224 227 233 238 240 237 227 224 226 223 229 232 233
63 62 75 67 45 36 56 64 31 16 34 38 28 13 9 3 356 353 344 335 326 308 298 290 286 284 274 260 252 248 239 232 234 243 243 240 232 226 229 230 227 225 225
74 72 76 71 49 32 44 50 23 25 44 37 17 5 4 356 352 349 340 331 322 313 308 303 297 295 291 283 275 263 255 244 240 245 247 243 239 233 234 232 226 221 219
77 77 83 80 51 24 26 17 14 29 36 22 4 354 350 342 335 331 314 308 287 283 290 291 290 294 293 286 285 283 278 268 257 251 242 235 230 227 227 228 228 222 216
95 92 91 88 30 5 360 351 355 13 20 360 345 335 329 326 326 324 321 308 296 300 294 278 274 279 273 284 287 281 273 267 262 246 242 236 230 229 228 226 224 220 218